Regional Weather Roundup
Issued by NWS

Home | Current Version | Previous Version | Text Only | Print | Product List | Glossary On
Versions: 1 2 3 4 5 6 7 8 9 10 11 12 13 14 15 16 17 18 19 20 21 22 23 24 25 26 27 28 29 30 31 32 33 34 35 36 37 38 39 40 41 42 43 44 45 46 47 48 49 50
497
ASUS44 KFWD 232115
RWRTX
NORTH TEXAS HOURLY WEATHER ROUNDUP
NATIONAL WEATHER SERVICE FORT WORTH TX
400 PM CDT SAT JUL 23 2016

NOTE: "FAIR" INDICATES FEW OR NO CLOUDS BELOW 12,000 FEET WITH NO
SIGNIFICANT WEATHER AND/OR OBSTRUCTIONS TO VISIBILITY.

TXZ118-119-232200-
DALLAS/FORT WORTH METROPLEX

CITY           SKY/WX    TMP DP  RH WIND       PRES   REMARKS
DFW AIRPORT    MOSUNNY   99  68  36 S9        29.90F HX 104
DALLAS LOVE    MOSUNNY   98  68  37 S8        29.90F HX 103
FTW MEACHAM    MOSUNNY  101  66  31 S8G20     29.90F HX 105
DAL-EXECUTIVE  MOSUNNY   99  69  37 S8        29.91F HX 105
FTW-ALLIANCE   MOSUNNY  100  67  33 S15G22    29.90F HX 105
FTW-NAS-JRB    MOSUNNY  101  63  28 S10       29.91F HX 103
FTW-SPINKS     MOSUNNY  100  64  30 S9        29.93F HX 103
ARLINGTON      MOSUNNY   99  68  36 SE15G22   29.91F HX 104
GRAND PRAIRIE  SUNNY     99  66  34 SE10      29.93F HX 102
ADDISON        MOSUNNY   99  70  39 S5        29.92F HX 105
MESQUITE       SUNNY     97  68  38 S8G18     29.92F HX 101
LANCASTER      SUNNY    100  68  35 SW8       29.92F HX 104
$$

TXZ091>094-102>105-117-120-121-131>134-232200-
NORTH CENTRAL TEXAS

CITY           SKY/WX    TMP DP  RH WIND       PRES   REMARKS
SHRMAN/DENISON MOSUNNY  100  69  35 S10G16    29.91F HX 106
GAINESVILLE    MOSUNNY   94  68  42 SE8       29.93F HX  99
BOWIE          SUNNY     98  66  34 S8        29.93F HX 101
BRIDGEPORT     MOSUNNY   99  69  37 S8        29.93F HX 105
DECATUR        SUNNY     97  64  33 SE7       29.93F HX  99
DENTON         SUNNY     98  69  38 SE10      29.90F HX 104
MCKINNEY       SUNNY     98  70  40 S14       29.90F HX 105
GREENVILLE     MOSUNNY   99  64  32 S10       29.91F HX 101
ROCKWALL       SUNNY     98  71  41 SW9G18    29.91F HX 105
TERRELL        MOSUNNY   97  69  40 S6        29.92F HX 103
WAXAHACHIE     MOSUNNY   97  70  41 SE6       29.93F HX 104
CLEBURNE       SUNNY     99  66  34 S13       29.93F HX 102
GRANBURY       SUNNY    102  59  24 SE10G18   29.92F HX 102
$$

TXZ083>090-098>101-113>116-127>130-139>142-154-155-232200-
WESTERN NORTH TEXAS

CITY           SKY/WX    TMP DP  RH WIND       PRES   REMARKS
WICHITA FALLS  SUNNY    100  65  31 S12G24    29.89F HX 103
WF-KICKAPOO    SUNNY    101  59  24 S6        29.91F HX 101
VERNON         MOSUNNY  101  52  19 S12G18    29.90F HX  98
ABILENE        SUNNY     98  62  30 SE10      29.94F HX  99
ABILENE-DYESS  SUNNY    100  62  28 S15G21    29.92F HX 101
CISCO          SUNNY     97  63  32 S9G16     29.97F HX  98
BRECKENRIDGE   SUNNY    100  59  25 SE12G17   29.91F HX 100
GRAHAM         MOSUNNY  102  65  30 SE10      29.89F HX 105
MINERAL WELLS  MOSUNNY   99  65  32 VRB5      29.90F HX 102
STEPHENVILLE   SUNNY     99  59  26 SE5       29.97F HX  98
COMANCHE       SUNNY    100  61  28 S12G17    29.95F HX 101
BROWNWOOD      LGT RAIN  99  59  26 SE5       29.94F HX  98
COLEMAN        SUNNY    100  59  26 S6G21     29.95F HX 100
$$

TXZ143>147-156>162-174-175-232200-
CENTRAL TEXAS

CITY           SKY/WX    TMP DP  RH WIND       PRES   REMARKS
WACO           SUNNY    100  65  31 S7        29.92F HX 103
WACO-TSTC      SUNNY    100  64  30 S9        29.92F HX 103
WACO-MCGREGOR  SUNNY    100  67  33 E8        29.92F HX 105
HILLSBORO      MOSUNNY   96  69  40 S10       29.93F HX 101
CORSICANA      MOSUNNY   99  70  38 SE12      29.93F HX 106
MEXIA          SUNNY     97  69  39 S3        29.93F HX 103
HEARNE         SUNNY     97  69  39 CALM      29.93F HX 103
CAMERON        SUNNY     98  70  39 SE7       29.92F HX 105
KILLEEN        SUNNY     97  63  32 SE13      29.92F HX  98
KILLEEN-SKYLRK   N/A     99  65  32 S6        29.93F HX 102
FORT HOOD      SUNNY     98  64  33 SE8       29.91F HX 100
GATESVILLE     SUNNY     99  63  30 S9        29.95F HX 100
HAMILTON       SUNNY     99  61  28 S10       29.96F HX  99
LAMPASAS       SUNNY     98  64  31 SE8G20    29.94F HX 100
$$

TXZ095>097-106>112-122>126-135>138-148>153-164>167-232200-
EAST TEXAS

CITY           SKY/WX    TMP DP  RH WIND       PRES   REMARKS
PARIS          MOSUNNY   99  66  34 S9G17     29.91F HX 102
SULPHUR SPRNGS MOSUNNY  100  68  35 S12       29.93F HX 105
MOUNT PLEASANT SUNNY     98  69  38 S6        29.91F HX 104
GILMER         SUNNY     98  70  40 S8        29.91F HX 104
MINEOLA        MOSUNNY  100  72  39 S8        29.92F HX 109
TYLER          SUNNY     99  70  38 W10       29.92F HX 106
LONGVIEW       MOSUNNY   98  71  41 W7        29.90F HX 106
MARSHALL       PTSUNNY   97  69  39 S6        29.93S HX 103
ATHENS         SUNNY     97  72  44 S8        29.91F HX 105
PALESTINE      SUNNY     97  72  45 S5        29.95S HX 105
JACKSONVILLE   MOSUNNY   97  71  43 W6        29.96F HX 105
HENDERSON      MOSUNNY   98  69  39 SW6       29.93F HX 104
CENTER         MOCLDY    91  71  51 SW3       29.93F HX  97
NACOGDOCHES    MOSUNNY   97  70  41 S12       29.91F HX 103
LUFKIN         PTSUNNY   97  71  42 S7        29.92F HX 104
$$

SUPPLEMENTAL OBSERVATIONS (CENTRAL)

CITY           SKY/WX    TMP DP  RH WIND       PRES   REMARKS
DENISON DAM      N/A     97  66  36 SW7         N/A  HX 100
CADDO GRASSLND   N/A    100  68  34 SW6G14      N/A  HX 106
PAT MAYSE LAKE   N/A     97  70  41 S9          N/A  HX 103
GREENVILLE       N/A     99  70  39 SW8G16      N/A  HX 105
CEDAR HILL       N/A     99  70  39 S6          N/A  HX 105
ATHENS           N/A    100  72  39 SW5         N/A  HX 109
LAKE LIMESTONE   N/A     99  68  36 SE7         N/A  HX 104
MCGREGOR         N/A     99  64  32 S10         N/A  HX 101
TEMPLE           N/A     99  64  32 S10         N/A  HX 101
$$

SUPPLEMENTAL OBSERVATIONS (WEST)

CITY           SKY/WX    TMP DP  RH WIND       PRES   REMARKS
MILLERS CREEK    N/A    102  64  29 S10         N/A  HX 105
POSSUM KINGDOM   N/A    102  63  27 SE10        N/A  HX 104
LBJ GRASSLAND    N/A     99  66  34 S8          N/A  HX 102
GRANBURY         N/A    102  59  24 S9G18       N/A  HX 102
COMANCHE         N/A     99  57  25 SE12        N/A  HX  97
HAMBY            N/A    100  61  27 S10         N/A  HX 101
IVIE RESERVOIR   N/A    100  61  27 E8G17       N/A  HX 101
COLORADO BEND    N/A    100  59  25 SW9G17      N/A  HX 100
$$

SUPPLEMENTAL OBSERVATIONS (EAST)

CITY           SKY/WX    TMP DP  RH WIND       PRES   REMARKS
CLARKSVILLE      N/A    102  72  37 S5G13       N/A  HX 112
TEXARKANA        N/A    102  73  39 S2          N/A  HX 114
LINDEN           N/A    100  72  39 S5          N/A  HX 109
CADDO LAKE       N/A    100  73  41 S3          N/A  HX 111
GILMER           N/A    100  70  37 SW6         N/A  HX 107
HENDERSON        N/A     99  70  39 S5G13       N/A  HX 105
LUFKIN           N/A     99  72  41 MISG        N/A  HX 107
N SABINE NF      N/A     97  75  49 MISG        N/A  HX 109
S SABINE NF      N/A     97  75  49 SE5         N/A  HX 109
$$

SUPPLEMENTAL OBSERVATIONS ARE A COLLECTION OF AUTOMATED INSTRUMENTS
THAT ARE MAINTAINED BY A VARIETY OF FEDERAL AND STATE AGENCIES.
CERTAIN ELEMENTS...SUCH AS HUMIDITY VALUES AND SUSTAINED WIND
SPEEDS...MAY BE APPROXIMATED.





USA.gov is the U.S. government's official web portal to all federal, state and local government web resources and services.